Powrót do katalogu

NOAA 16 DEB

AktywnySSO
NORAD 41219·DEBRIS·🇺🇸 United States

Wystrzelony Sep 21, 2000 z Vandenberg Space Force Base

Loading…

Następne Przeloty (najbliższe 24 godziny)

TLE

ŚwieżeSource: Space-Track

Epoka: Sep 14, 2026, 02:45 UTC

1 41219U 00055DY  26257.11508782  .00002037  00000-0  82193-3 0  9999
2 41219  98.6133 310.1688 0006250 235.7172 124.3418 14.29034984556751

Śledź NOAA 16 DEB w czasie rzeczywistym z AllMySat

Download on the App Store